This is the latest recevied weather packets stored in our database for station/object KD8PH. If no packets are shown the sender has not sent any weather packets the latest 10 day(s).
| Time | Temp. | Humidity | Pressure | Rain* | Wind** | Luminosity | Snow |
|---|---|---|---|---|---|---|---|
| 1777739135 | 16.11° C | 44% | 1014.9 hPa | 0 mm | - | - | - |
| 1777738549 | 15.56° C | 49% | 1014.9 hPa | 0 mm | - | - | - |
| 1777737941 | 15.56° C | 48% | 1014.9 hPa | 0 mm | - | - | - |
| 1777737345 | 15° C | 49% | 1014.9 hPa | 0 mm | - | - | - |
| 1777736744 | 15° C | 51% | 1014.8 hPa | 0 mm | - | - | - |
| 1777736143 | 15° C | 53% | 1014.7 hPa | 0 mm | - | - | - |
| 1777735549 | 15° C | 54% | 1014.7 hPa | 0 mm | - | - | - |
| 1777734936 | 15° C | 54% | 1014.7 hPa | 0 mm | - | - | - |
| 1777734341 | 15° C | 52% | 1014.6 hPa | 0 mm | - | - | - |
| 1777733743 | 14.44° C | 51% | 1014.5 hPa | 0 mm | - | - | - |
| 1777733158 | 14.44° C | 52% | 1014.4 hPa | 0 mm | - | - | - |
| 1777732536 | 13.89° C | 54% | 1014.1 hPa | 0 mm | - | - | - |
| 1777731945 | 13.89° C | 55% | 1013.9 hPa | 0 mm | - | - | - |
| 1777731339 | 13.33° C | 58% | 1013.8 hPa | 0 mm | - | - | - |
| 1777730736 | 13.33° C | 59% | 1013.9 hPa | 0 mm | - | - | - |
| 1777730149 | 13.33° C | 60% | 1013.7 hPa | 0.25 mm | - | - | - |
| 1777729544 | 13.33° C | 61% | 1013.8 hPa | 0.25 mm | - | - | - |
| 1777728942 | 13.33° C | 58% | 1013.8 hPa | 0.25 mm | - | - | - |
| 1777728352 | 13.89° C | 57% | 1013.8 hPa | 0.25 mm | - | - | - |
| 1777727751 | 13.89° C | 59% | 1013.9 hPa | 0.25 mm | - | - | - |
| 1777727149 | 13.33° C | 62% | 1013.9 hPa | 0.25 mm | - | - | - |
| 1777726547 | 13.33° C | 62% | 1013.8 hPa | 0 mm | - | - | - |
| 1777725948 | 12.78° C | 64% | 1013.8 hPa | 0 mm | - | - | - |
| 1777725337 | 12.22° C | 64% | 1013.7 hPa | 0 mm | - | - | - |
| 1777724738 | 12.22° C | 64% | 1013.6 hPa | 0 mm | - | - | - |
* Rain latest hour (hover to see other rain measurements)
** Current wind speed in m/s (hover to see current wind gust speed)